Salisbury, MD

9:45 AM EST on December 12, 2017 (GMT -0500)
Salisbury-Ocean City Wicomico Regional

Weather History for KSBY - November, 2012

Change the Weather History Date:

Friday, November 23, 2012

  Actual Average Record
Temperature  
Mean Temperature 49 °F 46 °F  
Max Temperature 62 °F 56 °F 77 °F (1979)
Min Temperature 35 °F 36 °F 15 °F (1989)
Degree Days  
Heating Degree Days 16 19  
Month to date heating degree days 385 362  
Since 1 July heating degree days 579 675  
Cooling Degree Days 0 0  
Month to date cooling degree days 0 0  
Year to date cooling degree days 1732 1150  
Moisture  
Dew Point 39 °F    
Average Humidity 66    
Maximum Humidity 92    
Minimum Humidity 39    
Precipitation  
Precipitation 0.00 in 0.11 in 1.03 in (1953)
Month to date precipitation 0.37 2.58  
Year to date precipitation 39.90 41.12  
Snow  
Snow 0.00 in 0.00 in 2.00 in (1929)
Month to date snowfall 0.0 0.1  
Since 1 July snowfall 0.0 0.1  
Snow Depth 0.00 in    
Sea Level Pressure  
Sea Level Pressure 29.98 in    
Wind  
Wind Speed 3 mph (SSW)    
Max Wind Speed 13 mph    
Max Gust Speed 14 mph    
Visibility 5 miles    
Events Fog    
T = Trace of Precipitation, MM = Missing Value Source: NWS Daily Summary

Daily Weather History Graph

Daily Weather History Graph

Search for Another Location

Airport or City:

Trip Planner

Search our weather history database for the weather conditions in past years. The results will help you decide how hot, cold, wet, or windy it might be!

Date:

Astronomy

Nov. 23, 2012 Rise Set
Actual Time 6:52 AM EST 4:44 PM EST
Civil Twilight 6:23 AM EST 5:13 PM EST
Nautical Twilight 5:51 AM EST 5:45 PM EST
Astronomical Twilight 5:19 AM EST 6:17 PM EST
Moon 1:55 PM EST (11/23) 2:12 AM EST (11/23)
Length of Visible Light 10h 49m
Length of Day
9h 51m
Waxing Gibbous, 79% of the Moon is Illuminated
Nov 23
Waxing Gibbous
Nov 28
Full
Dec 6
Last Quarter
Dec 13
New
Dec 20
First Quarter

Hourly Weather History & Observations

Time (EST) Temp. Dew Point Humidity Pressure Visibility Wind Dir Wind Speed Gust Speed Precip Events Conditions
12:00 AM 37.4 °F 33.8 °F 87% 30.15 in 0.8 mi Calm Calm - N/A   Mist
12:14 AM 37.4 °F 35.6 °F 93% 30.14 in 0.2 mi Calm Calm - N/A Fog Fog
12:54 AM 37.9 °F 35.1 °F 89% 30.14 in 0.2 mi Calm Calm - N/A Fog Fog
1:54 AM 37.9 °F 35.1 °F 89% 30.13 in 0.2 mi Calm Calm - N/A Fog Fog
2:54 AM 37.0 °F 35.1 °F 93% 30.12 in 0.2 mi Calm Calm - N/A Fog Fog
3:54 AM 37.0 °F 34.0 °F 89% 30.10 in 0.2 mi Calm Calm - N/A Fog Fog
4:54 AM 36.0 °F 33.1 °F 89% 30.10 in 0.2 mi Calm Calm - N/A Fog Fog
5:54 AM 36.0 °F 34.0 °F 93% 30.10 in 0.2 mi Calm Calm - N/A Fog Fog
6:54 AM 35.1 °F 32.0 °F 89% 30.10 in 0.2 mi Calm Calm - N/A Fog Fog
7:54 AM 36.0 °F 34.0 °F 93% 30.09 in 0.2 mi Calm Calm - N/A Fog Fog
8:54 AM 39.0 °F 36.0 °F 89% 30.07 in 0.2 mi Calm Calm - N/A Fog Fog
9:54 AM 44.1 °F 42.1 °F 93% 30.06 in 0.2 mi Calm Calm - N/A Fog Fog
10:01 AM 44.6 °F 42.8 °F 93% 30.04 in 0.2 mi Calm Calm - N/A Fog Fog
10:18 AM 46.4 °F 42.8 °F 87% 30.04 in 0.8 mi Calm Calm - N/A   Mist
10:24 AM 46.4 °F 44.6 °F 93% 30.04 in 2.0 mi Calm Calm - N/A   Overcast
10:33 AM 48.2 °F 44.6 °F 87% 30.04 in 6.0 mi Calm Calm - N/A   Mostly Cloudy
10:46 AM 48.2 °F 44.6 °F 87% 30.03 in 8.0 mi Calm Calm - N/A   Scattered Clouds
10:54 AM 48.9 °F 45.0 °F 86% 30.03 in 9.0 mi SSW 3.5 mph - N/A   Partly Cloudy
11:54 AM 55.9 °F 44.1 °F 64% 29.96 in 10.0 mi SSW 4.6 mph - N/A   Clear
12:54 PM 60.1 °F 41.0 °F 49% 29.93 in 10.0 mi SW 8.1 mph - N/A   Clear
1:54 PM 61.0 °F 35.1 °F 38% 29.90 in 10.0 mi SSW 12.7 mph - N/A   Clear
2:54 PM 60.1 °F 37.9 °F 44% 29.86 in 10.0 mi South 6.9 mph - N/A   Clear
3:54 PM 57.0 °F 34.0 °F 42% 29.83 in 10.0 mi South 6.9 mph - N/A   Clear
4:54 PM 52.0 °F 37.9 °F 59% 29.83 in 10.0 mi South 3.5 mph - N/A   Clear
5:54 PM 50.0 °F 43.0 °F 77% 29.82 in 10.0 mi Calm Calm - N/A   Clear
6:54 PM 52.0 °F 45.0 °F 77% 29.81 in 10.0 mi SSE 4.6 mph - N/A   Clear
7:54 PM 52.0 °F 44.1 °F 74% 29.80 in 10.0 mi South 5.8 mph - N/A   Clear
8:54 PM 53.1 °F 43.0 °F 69% 29.77 in 10.0 mi SSW 5.8 mph - N/A   Overcast
9:54 PM 53.1 °F 42.1 °F 66% 29.76 in 10.0 mi SW 5.8 mph - N/A   Mostly Cloudy
10:54 PM 52.0 °F 39.9 °F 63% 29.76 in 10.0 mi WNW 4.6 mph - N/A   Partly Cloudy
11:54 PM 53.1 °F 39.9 °F 61% 29.77 in 10.0 mi NW 9.2 mph - N/A   Clear